Hourly Data Report for September 13, 2017

All times are specified in Local Standard Time (LST). Add 1 hour to adjust for Daylight Saving Time where and when it is observed.

BATHURST A
NEW BRUNSWICK

47°37'47.000" N
65°44'20.000" W
58.80 m
8100505
71574
ZBF

Download Data

Hourly Data (September 2017)
Hourly Data Report for September 13, 2017
Temp Definition
°C
Dew Point Temp Definition
°C
Rel Hum Definition
%
Wind Dir Definition
10's deg

Wind Spd Definition
km/h
Visibility Definition
km
Stn Press Definition
kPa
Hmdx Definition


Wind Chill Definition


Weather Definition


TIME
00:00 Legend Double Dagger 10.8 10.4 97 36 1 8.1 99.90     Fog
01:00 Legend Double Dagger 9.9 9.5 97 23 5 9.7 99.88     Fog
02:00 Legend Double Dagger 9.4 9.1 97 24 8 9.7 99.85     Fog
03:00 Legend Double Dagger 9.1 8.7 98 24 5 9.7 99.85     Fog
04:00 Legend Double Dagger 8.8 8.4 97 36 2 9.7 99.80     Fog
05:00 Legend Double Dagger 8.0 7.7 98 8 5 9.7 99.81     Fog
06:00 Legend Double Dagger 8.6 8.4 98 36 1 9.7 99.86     Fog
07:00 Legend Double Dagger 9.9 9.3 96 17 3 9.7 99.89     Fog
08:00 Legend Double Dagger 15.7 12.5 81 16 3 12.9 99.90     Clear
09:00 Legend Double Dagger 19.1 12.3 64 28 18 16.1 99.89     LegendNANA
10:00 Legend Double Dagger 20.9 12.6 59 27 16 19.3 99.87     LegendNANA
11:00 Legend Double Dagger 23.3 11.9 48 25 21 24.1 99.82 26   Clear
12:00 Legend Double Dagger 25.1 11.9 43 26 17 24.1 99.79 27   LegendNANA
13:00 Legend Double Dagger 25.7 11.4 40 26 22 24.1 99.74 28   LegendNANA
14:00 Legend Double Dagger 26.3 9.0 33 28 21 24.1 99.69 27   Clear
15:00 Legend Double Dagger 26.4 11.5 39 26 27 24.1 99.65 28   LegendNANA
16:00 Legend Double Dagger 26.2 11.1 38 25 24 19.3 99.63 28   LegendNANA
17:00 Legend Double Dagger 25.3 11.4 41 24 17 24.1 99.62 27   Clear
18:00 Legend Double Dagger 22.5 12.2 52 20 9 24.1 99.62 25   LegendNANA
19:00 Legend Double Dagger 20.4 11.9 58 23 14 24.1 99.63     LegendNANA
20:00 Legend Double Dagger 18.6 12.1 66 23 14 24.1 99.67     Clear
21:00 Legend Double Dagger 17.9 11.8 67 24 13 24.1 99.67     LegendNANA
22:00 Legend Double Dagger 16.9 11.8 72 25 11 24.1 99.67     LegendNANA
23:00 Legend Double Dagger 20.7 11.0 53 27 18 24.1 99.67     Clear

Notes on Data Quality.

Legend

  • E = Estimated
  • M = Missing
  • NA = Not Available
  • ‡ = Partner data that is not subject to review by the National Climate Archives
Date modified: